Погода в Яворове

Украина / Львовская область     49°56′22″N   23°23′08″E
темп.,
°C
ветер,
м/с
пор.,
м/с
влажн.,
%
обл.,
%
осадки,
мм/ч
давл.,
гПа
погр.,
м
25 июня, сб
сб2500:00+16вюв36720 0.0 101586
03:00+15вюв33762 0.0 101544
06:00+14вюв22780 0.0 101530
09:00+21вюв35571 0.0 1016394
12:00+25вюв56410 0.0 10151587
15:00+27вюв56370 0.0 10142071
18:00+26вюв56385 0.0 10142037
21:00+21в410662 0.0 1015307
26 июня, вс
вс2600:00+18вюв411753 0.0 1016236
03:00+16в3108120 0.0 1017197
06:00+15в410862 0.0 1017199
09:00+21вюв59605 0.0 1018611
12:00+25вюв56469 0.0 10181537
15:00+27вюв56435 0.0 10181896
18:00+24в575634 0.0 10181009
21:00+21в48745 0.0 1018289
27 июня, пн
пн2700:00+18в39894 0.0 1020189
03:00+17вюв39875 0.0 1020198
06:00+15вюв38925 0.0 1020168
09:00+22вюв58665 0.0 1020612
12:00+26вюв56511 0.0 10201499
15:00+29юв554062 0.0 10182459
18:00+26вюв785425 0.0 1018867
21:00+23в410690 0.1 1018301
28 июня, вт
вт2800:00+19вюв397540 0.1 1019188
03:00+18в39753 0.1 1018146
06:00+17юв38804 0.0 1019153
09:00+23юв511585 0.1 1019567
12:00+28юв67374 0.0 10181642
15:00+30юв55343 0.0 10182190
18:00+26ююз464628 0.0 1018948
21:00+20ююз00736 0.0 101811
29 июня, ср
ср2900:00+18всв2278100 0.1 101913
03:00+18юв379013 0.2 1019115
06:00+16ю11920 0.0 101913
09:00+23в34685 0.0 1018373
12:00+28в454928 0.0 10181289
15:00+31вюв453599 0.0 10163229
18:00+27в384923 0.0 1015222
21:00+26в41057100 0.0 1014449